DECAYED

SL-6 R/B(2), 11550 (Decayed)

Orbit data source: Space-Track

SL-6 R/B(2), 11550 was space debris originally from a launch on Tue, 28 Aug 1979 UTC launched from the Plesetsk Missile And Space Complex (PKMTR). Debris objects in space refer to the collection of defunct objects orbiting the Earth. Examples of debris include non-operational satellites, rocket bodies, and fragments generated from explosions, collisions, or faulty payload assembly.

Loading next visibility...
Identifier
11550, 1979-077D
Orbit
Decayed
Country
Flag of CISCIS
Related business
Manufacturer
NPO Energiya
Mission
Decayed spacecraft
Bus & Motor
BLOK-L, Unknown motor
Mass
~900 kg wet, ~1,000 kg dry
Launch date (UTC)
1979-08-28 (47 years ago)
Launch vehicle
Unknown
Launch site
Plesetsk Missile And Space Complex (PKMTR)
Object type
Payload
Rocket body
Debris
Shape & HBR
Unknown
Radar Cross Section
Large (>1 m²)

Expand to show TLE details & history
Last TLE update: 1 year ago

TLE from 1 year ago
0 SL-6 R/B(2)
1 11550U 79077D   25093.99323019 -.00000571  36124-5  00000+0 0  9991
2 11550  61.8520 332.8510 4563597  60.9240  17.1257  6.67977231332186
Epoch: 2025-04-03T23:50Z
TLE epoch observation values (Epoch: 2025-04-03T23:50:15.088Z)
Latitude
56.72138°
Longitude
-91.42921°
Altitude
847.693 km
Speed
8.779 km/s
True Right ascension
06h 34m 46s
True Declination
56° 33' 55"
Sunlit
Object was in daylight at epoch
Visualization orbit readout
Latitude
Unknown
Longitude
Unknown
Altitude
Unknown
Speed
Unknown
Apparent Right ascension
Unknown
Apparent Declination
Unknown
Sunlit
N/A
Visualization observer readout
Local Sidereal Time
23:08:35
Azimuth
Unknown
Elevation
Unknown
Doppler factor
Unknown
Orbital elements
Apogee altitude
10,965.141 km
Perigee altitude
95.885 km
Semi-major axis
11,908.65 km
Eccentricity
0.45636
Inclination
61.852°
RAAN
332.851°
Arg. of periapsis
60.924°
True anomaly
47.84499°
Mean anomaly
17.1257°
Eccentric anomaly
30.32942°
Mean motion
1.67013 °/min
Orbital period
215.55 mins
BSTAR
0
Loading maneuver chart data...
Computing Atmospheric mass density...
Loading historical data...
Loading historical data...
Loading historical data...
Loading historical data...
Loading historical data...
Loading historical data...
Loading historical data...

Documentation

Showing up to 5 results
|